Location: Alexandria
(38.8050°N, 77.0470°W)
Time: 17:51:40
(UTC-05:00)

N. Korean satellite - Pass Details

Date: 11 November 2017
Orbit: 460 x 514 km, 97.2° (Epoch: 20 November)

Event Time Altitude Azimuth Distance (km) Brightness Sun altitude
Rises 18:22:12 0° 176° (S) 2,469 10.2 -16.7°
Reaches altitude 10° 18:24:15 10° 180° (S) 1,601 9.3 -17.1°
Maximum altitude 18:27:38 57° 260° (W) 548 7.1 -17.7°
Drops below altitude 10° 18:31:04 10° 340° (NNW) 1,626 9.4 -18.4°
Sets 18:33:09 0° 345° (NNW) 2,513 10.3 -18.8°
